Warning: Javascript must be enabled to use all the features on this page!


Page Loading - Please Wait...

Click to hideNews Bulletins

Peak Streamflow for the Nation

USGS 11447650 SACRAMENTO R A FREEPORT CA

Sacramento County, California
Hydrologic Unit Code 18020163
Latitude  38°27'22", Longitude 121°30'01" NAD27
Output formats
Table
Graph
Tab-separated file
peakfq (watstore) format
Reselect output format
Water
Year
Date Gage
Height
(feet)
Stream-
flow
(cfs)
1909 1909-01-17 29.603 103,0006,7
1949 1949-03-14 20.363 61,3006
1950 1950-02-07 24.553 80,2006
1951 1950-11-21 30.143 104,0006
1952 1952-01-15 26.843 87,4006
1953 1953-01-21 25.463 80,0006
1954 1954-03-11 23.733 76,8006
1955 1954-12-10 13.893 44,0006
1956 1955-12-23 28.673 95,3006
1957 1957-03-06 25.75 84,7006
1958 1958-04-07 27.62 88,9006
1959 1959-02-20 21.64 67,4006
1960 1960-02-10 21.39 69,6006
1961 1961-02-14 15.89 49,8006
1962 1962-02-16 22.85 70,5006
1963 1963-02-01 28.52 98,1006
1964 1964-01-23 17.31 52,8006
1965 1964-12-25 29.36 99,7006
1966 1966-01-10 16.81 53,7006
1967 1967-01-31 27.40 90,9006
1968 1968-02-29 20.80 66,8006
1969 1969-01-21 28.18 95,5006
1970 1970-01-24 28.24 94,1006
1971 1970-12-05 21.79 73,7006
1972 1972-03-06 10.29 33,3006
1973 1973-01-19 26.74 93,4006
1974 1974-01-21 27.18 95,0006
1975 1975-03-26 21.85 74,4006
1976 1975-12-08   30,6001,6
1977 1977-01-05   13,7001,6
1978 1978-03-09   79,3001,6
1979 1979-02-24   71,3001,6
1980 1980-01-15   94,6001,6
1981 1981-01-31 11.632 54,1006
1982 1982-02-16 21.27 103,0006
1983 1982-12-24 21.132 97,8006
1984 1983-12-26 20.74 94,5006
1985 1984-11-30 8.762 42,0006
1986 1986-02-19 25.00 117,0006
1987 1987-03-17 7.73 39,4006
1988 1988-01-07 7.07 38,6006
1989 1989-03-26 16.28 74,7006
1990 1990-01-16 7.05 38,8006
1991 1991-03-27 9.21 48,0006
1992 1992-02-17 9.60 48,3006
1993 1993-03-28 17.462 97,4006
1994 1994-02-10 6.12 33,2006
1995 1995-03-11 21.77 102,0006
1996 1996-02-07 19.522 88,6006
1997 1997-01-03 23.83 115,0006
1998 1998-02-04 20.96 97,9006
1999 1999-02-18 19.13 87,9006
2000 2000-02-15 19.23 88,5006
2001 2001-03-09 9.88 48,8006
2002 2002-01-06 114.336 66,0006
2003 2003-01-03 114.34 65,7006
2004 2004-02-27 116.472 77,0006
2005 2005-05-21 116.802 77,3006
2006 2005-12-31 121.14 97,2006
2007 2007-02-12 108.67 41,6006
2008 2008-01-30 109.13 42,1006
2009 2009-03-05 110.69 48,6006
2010 2010-01-24 113.34 59,9006
2011 2011-03-25 119.312 87,5006
2012 2012-03-18 110.25 47,0006
2013 2012-12-26 115.79 72,7006
2014 2014-03-07 106.07 29,3006
2015 2014-12-16 111.862 56,0006
2016 2016-03-15 117.902 84,5006
2017 2017-02-09 121.17 100,0006
2018 2018-04-09 117.05 80,9006
2019 2019-02-28 118.75 87,0006
?
  Peak Gage-Height Qualification Codes.
?
  Peak Streamflow Qualification Codes.